Location: Burgwalden
(48.2830°N, 10.7576°E)
Time: 21:38:43
(UTC+00:00)

NOSS 2-3 (C) - Pass Details

Date: 26 September 2023
Orbit: 503 x 1698 km, 63.3° (Epoch: 06 December)

Event Time Altitude Azimuth Distance (km) Brightness Sun altitude
Exits shadow 02:20:34 25° 317° (NW) 1,760 5.7 -27.3°
Maximum altitude 02:24:20 84° 231° (SW) 1,058 4.5 -26.8°
Drops below altitude 10° 02:32:18 10° 144° (SE) 3,337 7.3 -25.7°
Sets 02:35:33 0° 144° (SE) 4,478 8.0 -25.2°
